IZ2WMD-13 Weather Reports


time (UTC)temp
F
wind
direction
speed
knots
gust
knots
rain 1hr
in
rain 24hr
in
rain mn
in
humidity
%
barometer
mb
20260507053619 53 0.0 0.0 0.00 0.00 0.00 94 1012.2
20260507051614 53 0.0 0.0 0.00 0.00 0.00 95 1012.1
20260507043604 52 0.0 0.0 0.00 0.00 0.00 96 1011.6
20260507035554 51 0.0 0.0 0.00 0.00 0.00 97 1011.4
20260507033549 51 0.0 0.0 0.00 0.00 0.00 97 1011.4
20260507025540 51 0.0 0.0 0.00 0.00 0.00 99 1011.3
20260507023534 50 0.0 0.0 0.00 0.00 0.00 98 1011.5
20260507021257 51 0.0 0.0 0.00 0.00 0.00 96 1011.4
20260507005237 52 0.0 0.0 0.00 0.00 0.00 96 1010.8
20260507003232 52 0.0 0.0 0.00 0.00 0.00 95 1010.8
20260507001227 52 0.0 0.0 0.00 0.00 0.00 97 1010.8
20260506233217 51 0.0 0.0 0.00 0.00 0.00 99 1010.9
20260506225207 51 0.0 0.0 0.00 0.00 0.00 98 1010.7
20260506221158 51 0.0 0.0 0.00 0.00 0.00 96 1010.7
20260506213148 52 0.0 0.0 0.00 0.00 0.00 93 1010.4
20260506205139 52 0.0 0.0 0.00 0.00 0.00 91 1010.5
20260506203132 53 0.0 0.0 0.00 0.00 0.00 88 1010.4
20260506185106 51 0.0 0.0 0.00 0.00 0.00 96 1009.4
20260506165037 52 0.0 0.0 0.00 0.00 0.00 95 1008.0
20260506161028 51 0.0 0.0 0.00 0.00 0.00 92 1007.3
20260506155023 52 0.0 0.0 0.00 0.00 0.00 85 1007.5
20260506145008 62 0.0 0.0 0.00 0.00 0.00 78 1005.9
20260506140958 65 0.0 0.0 0.00 0.00 0.00 71 1006.3
20260506134954 67 0.0 0.0 0.00 0.00 0.00 66 1006.7
20260506132948 69 0.0 0.0 0.00 0.00 0.00 67 1006.9
20260506124939 64 0.0 0.0 0.00 0.00 0.00 77 1007.6
20260506122934 67 0.0 0.0 0.00 0.00 0.00 70 1007.4
20260506110914 60 0.0 0.0 0.00 0.00 0.00 84 1008.3
20260506104909 60 0.0 0.0 0.00 0.00 0.00 84 1008.3
20260506102904 60 0.0 0.0 0.00 0.00 0.00 83 1008.4
20260506100900 60 0.0 0.0 0.00 0.00 0.00 81 1008.4
20260506094855 63 0.0 0.0 0.00 0.00 0.00 86 1008.3
20260506092850 59 0.0 0.0 0.00 0.00 0.00 99 1008.4
20260506090845 55 0.0 0.0 0.00 0.00 0.00 100 1008.5
20260506084840 55 0.0 0.0 0.00 0.00 0.00 100 1008.4
20260506082835 56 0.0 0.0 0.00 0.00 0.00 97 1008.3
20260506080831 57 0.0 0.0 0.00 0.00 0.00 97 1008.0
20260506072820 56 0.0 0.0 0.00 0.00 0.00 100 1008.3
20260506070815 55 0.0 0.0 0.00 0.00 0.00 100 1008.8